Paso Robles, CA

7:50 AM PST on December 06, 2019 (GMT -0800)
Paso Robles Municipal

Weather History for KPRB - October, 2019

Change the Weather History Date:

Sunday, October 6, 2019

  Actual Average Record
Temperature  
Mean Temperature 67 °F 65 °F  
Max Temperature 90 °F 83 °F 102 °F (2014)
Min Temperature 44 °F 47 °F 33 °F (2009)
Degree Days  
Heating Degree Days 0 3  
Month to date heating degree days 30 14  
Since 1 July heating degree days 56 46  
Cooling Degree Days 2 2  
Month to date cooling degree days 2 16  
Year to date cooling degree days 1037 907  
Growing Degree Days 17 (Base 50)    
Moisture  
Dew Point 33 °F    
Average Humidity 34    
Maximum Humidity 60    
Minimum Humidity 13    
Precipitation  
Precipitation 0.00 in 0.01 in 0.28 in (2010)
Month to date precipitation 0.00 0.07  
Year to date precipitation 11.28 9.19  
Sea Level Pressure  
Sea Level Pressure 30.00 in    
Wind  
Wind Speed 1 mph ()    
Max Wind Speed 12 mph    
Max Gust Speed 14 mph    
Visibility 10.0 miles    
Events      
T = Trace of Precipitation, MM = Missing Value Source: Averaged Metar Reports

Daily Weather History Graph

Daily Weather History Graph

Search for Another Location

Airport or City:

Astronomy

Oct. 06, 2019 Rise Set
Actual Time 7:01 AM PDT 6:39 PM PDT
Civil Twilight 6:35 AM PDT 7:04 PM PDT
Nautical Twilight 6:06 AM PDT 7:34 PM PDT
Astronomical Twilight 5:36 AM PDT 8:03 PM PDT
Moon 3:07 PM PDT 12:19 AM PDT
Length of Visible Light 12h 28m
Length of Day
11h 37m
First Quarter, 61% of the Moon is Illuminated
Oct 6
First Quarter
Oct 13
Full
Oct 21
Last Quarter
Oct 27
New
Nov 4
First Quarter

Hourly Weather History & Observations

Time (PDT) Temp. Dew Point Humidity Pressure Visibility Wind Dir Wind Speed Gust Speed Precip Events Conditions
12:53 AM 53.1 °F 33.1 °F 47% 30.01 in 10.0 mi Calm Calm - N/A   Clear
1:53 AM 50.0 °F 30.9 °F 48% 30.02 in 10.0 mi Calm Calm - N/A   Clear
2:53 AM 51.1 °F 30.0 °F 44% 30.01 in 10.0 mi Calm Calm - N/A   Clear
3:53 AM 48.0 °F 30.9 °F 52% 30.01 in 10.0 mi Calm Calm - N/A   Clear
4:53 AM 51.1 °F 33.1 °F 50% 30.01 in 10.0 mi Calm Calm - N/A   Clear
5:53 AM 46.9 °F 28.9 °F 50% 30.03 in 10.0 mi Calm Calm - N/A   Clear
6:53 AM 46.0 °F 30.9 °F 56% 30.04 in 10.0 mi Calm Calm - N/A   Clear
7:53 AM 46.9 °F 33.1 °F 59% 30.05 in 10.0 mi Calm Calm - N/A   Clear
8:53 AM 57.0 °F 35.1 °F 44% 30.06 in 10.0 mi Calm Calm - N/A   Clear
9:53 AM 66.0 °F 36.0 °F 33% 30.06 in 10.0 mi Calm Calm - N/A   Clear
10:53 AM 71.1 °F 37.0 °F 29% 30.06 in 10.0 mi Calm Calm - N/A   Clear
11:53 AM 79.0 °F 37.9 °F 23% 30.03 in 10.0 mi Calm Calm - N/A   Clear
12:53 PM 84.9 °F 34.0 °F 16% 30.00 in 10.0 mi SE 5.8 mph - N/A   Clear
1:53 PM 88.0 °F 33.1 °F 14% 29.98 in 10.0 mi SSW 8.1 mph - N/A   Clear
2:53 PM 88.0 °F 32.0 °F 14% 29.96 in 10.0 mi West 5.8 mph - N/A   Clear
3:53 PM 88.0 °F 32.0 °F 14% 29.95 in 10.0 mi Calm Calm - N/A   Clear
4:53 PM 88.0 °F 30.9 °F 13% 29.93 in 10.0 mi SW 8.1 mph - N/A   Clear
5:53 PM 84.9 °F 33.1 °F 16% 29.93 in 10.0 mi SSW 8.1 mph - N/A   Clear
6:53 PM 78.1 °F 34.0 °F 20% 29.94 in 10.0 mi South 5.8 mph - N/A   Clear
7:53 PM 70.0 °F 35.1 °F 28% 29.97 in 10.0 mi ESE 4.6 mph - N/A   Clear
8:53 PM 70.0 °F 36.0 °F 29% 29.99 in 10.0 mi Calm Calm - N/A   Clear
9:53 PM 63.0 °F 33.1 °F 33% 30.00 in 10.0 mi Calm Calm - N/A   Clear
10:53 PM 61.0 °F 35.1 °F 38% 30.01 in 10.0 mi SE 3.5 mph - N/A   Clear
11:53 PM 57.0 °F 35.1 °F 44% 30.01 in 10.0 mi North - - N/A   Clear